FW9992 Weather Reports


time (UTC)temp
C
wind
direction
speed
KPH
gust
KPH
rain 1hr
cm
rain 24hr
cm
rain mn
cm
humidity
%
barometer
mb
20260507085121 7 112 9.7 17.7 0.00 0.00 0.00 44 1024.0
20260507084456 7 110 9.7 19.3 0.00 0.00 0.00 44 1023.9
20260507083831 7 127 9.7 17.7 0.00 0.00 0.00 43 1023.8
20260507083121 7 137 9.7 19.3 0.00 0.00 0.00 42 1023.9
20260507082441 8 148 12.9 22.5 0.00 0.00 0.00 41 1023.9
20260507081816 8 144 12.9 20.9 0.00 0.00 0.00 41 1023.8
20260507081122 7 126 9.7 19.3 0.00 0.00 0.00 43 1023.8
20260507080442 8 158 12.9 19.3 0.00 0.00 0.00 42 1023.8
20260507075801 8 132 11.3 19.3 0.00 0.00 0.00 43 1023.9
20260507075121 8 133 8.0 25.7 0.00 0.00 0.00 43 1024.0
20260507074441 8 146 11.3 25.7 0.00 0.00 0.00 43 1023.9
20260507073818 8 145 11.3 30.6 0.00 0.00 0.00 42 1024.0
20260507073121 9 156 14.5 30.6 0.00 0.00 0.00 42 1023.8
20260507072441 8 150 12.9 27.4 0.00 0.00 0.00 42 1023.9
20260507071817 8 156 11.3 25.7 0.00 0.00 0.00 43 1023.9
20260507071136 8 153 14.5 25.7 0.00 0.00 0.00 43 1024.0
20260507070441 8 151 12.9 22.5 0.00 0.00 0.00 42 1024.0
20260507065801 8 130 11.3 17.7 0.00 0.00 0.00 42 1023.9
20260507065122 9 123 9.7 17.7 0.00 0.00 0.00 41 1023.8
20260507064441 9 103 6.4 17.7 0.00 0.00 0.00 41 1023.8
20260507063816 9 85 9.7 19.3 0.00 0.00 0.00 40 1023.7
20260507063136 10 84 9.7 17.7 0.00 0.00 0.00 39 1023.7
20260507062511 10 81 9.7 14.5 0.00 0.00 0.00 40 1023.8
20260507061801 10 76 8.0 9.7 0.00 0.00 0.00 45 1023.7
20260507061122 9 68 6.4 9.7 0.00 0.00 0.00 45 1023.7
20260507060441 9 55 4.8 9.7 0.00 0.00 0.00 45 1023.6
20260507055802 10 81 6.4 9.7 0.00 0.00 0.00 44 1023.7
20260507055121 10 71 4.8 11.3 0.00 0.00 0.00 42 1023.8
20260507054442 9 79 6.4 11.3 0.00 0.00 0.00 46 1023.7
20260507053802 9 86 6.4 8.0 0.00 0.00 0.00 45 1023.7
20260507053121 9 25 3.2 6.4 0.00 0.00 0.00 46 1023.6
20260507052456 10 5 1.6 8.0 0.00 0.00 0.00 45 1023.6
20260507051816 10 305 4.8 8.0 0.00 0.00 0.00 45 1023.6
20260507051121 10 291 3.2 8.0 0.00 0.00 0.00 45 1023.5
20260507050441 10 68 4.8 8.0 0.00 0.00 0.00 45 1023.5
20260507045801 10 338 4.8 9.7 0.00 0.00 0.00 44 1023.4
20260507045122 10 20 3.2 11.3 0.00 0.00 0.00 45 1023.3
20260507044456 10 18 4.8 11.3 0.00 0.00 0.00 45 1023.3
20260507043816 10 21 4.8 11.3 0.00 0.00 0.00 44 1023.3
20260507043136 10 1 4.8 11.3 0.00 0.00 0.00 44 1023.1
20260507042441 10 338 4.8 11.3 0.00 0.00 0.00 44 1023.1
20260507041801 10 357 4.8 11.3 0.00 0.00 0.00 43 1023.0
20260507041121 10 351 4.8 12.9 0.00 0.00 0.00 43 1022.8
20260507040511 10 335 6.4 16.1 0.00 0.00 0.00 43 1022.9
20260507035801 10 335 9.7 16.1 0.00 0.00 0.00 43 1022.8
20260507035121 10 343 8.0 17.7 0.00 0.00 0.00 43 1022.8
20260507034441 10 332 8.0 17.7 0.00 0.00 0.00 43 1022.7
20260507033802 11 339 8.0 16.1 0.00 0.00 0.00 42 1022.7
20260507033151 11 342 6.4 19.3 0.00 0.00 0.00 42 1022.7
20260507032442 11 346 8.0 19.3 0.00 0.00 0.00 41 1022.6
20260507031816 11 333 8.0 16.1 0.00 0.00 0.00 41 1022.5
20260507031121 11 336 6.4 16.1 0.00 0.00 0.00 40 1022.4
20260507030456 11 348 8.0 24.1 0.00 0.00 0.00 38 1022.3
20260507025801 12 348 6.4 16.1 0.00 0.00 0.00 36 1022.2
20260507025121 12 8 4.8 12.9 0.00 0.00 0.00 36 1022.1
20260507024442 12 13 4.8 12.9 0.00 0.00 0.00 36 1022.0
20260507023801 12 5 4.8 9.7 0.00 0.00 0.00 36 1021.8
20260507023121 12 352 4.8 9.7 0.00 0.00 0.00 35 1021.8
20260507022441 12 347 4.8 8.0 0.00 0.00 0.00 35 1021.7
20260507021801 12 356 4.8 8.0 0.00 0.00 0.00 35 1021.8
20260507021122 12 8 3.2 9.7 0.00 0.00 0.00 35 1021.7
20260507020441 12 347 4.8 9.7 0.00 0.00 0.00 35 1021.6
20260507015801 12 340 3.2 9.7 0.00 0.00 0.00 36 1021.5
20260507015121 13 342 3.2 12.9 0.00 0.00 0.00 35 1021.4
20260507014511 13 338 6.4 12.9 0.00 0.00 0.00 34 1021.3
20260507013801 13 348 6.4 14.5 0.00 0.00 0.00 34 1021.4
20260507013121 13 347 8.0 16.1 0.00 0.00 0.00 34 1021.3
20260507012441 14 348 6.4 12.9 0.00 0.00 0.00 34 1021.4
20260507011801 15 328 4.8 17.7 0.00 0.00 0.00 32 1021.3
20260507011121 15 330 8.0 19.3 0.00 0.00 0.00 33 1021.2
20260507010441 15 327 6.4 19.3 0.00 0.00 0.00 32 1021.1
20260507005801 15 329 4.8 22.5 0.00 0.00 0.00 32 1021.0
20260507005121 15 312 8.0 22.5 0.00 0.00 0.00 31 1021.0
20260507004456 15 351 8.0 20.9 0.00 0.00 0.00 31 1020.9
20260507003816 15 334 8.0 20.9 0.00 0.00 0.00 32 1020.9
20260507003122 15 314 9.7 20.9 0.00 0.00 0.00 32 1020.9
20260507002456 15 332 8.0 22.5 0.00 0.00 0.00 31 1020.8
20260507001801 15 319 9.7 22.5 0.00 0.00 0.00 32 1020.9
20260507001136 15 346 4.8 27.4 0.00 0.00 0.00 33 1020.9
20260507000511 15 318 12.9 27.4 0.00 0.00 0.00 32 1020.7
20260506235801 15 29 6.4 16.1 0.00 0.00 0.00 31 1020.8
20260506235121 16 359 4.8 24.1 0.00 0.00 0.00 31 1020.6
20260506234441 15 351 9.7 24.1 0.00 0.00 0.00 32 1020.7
20260506233801 15 311 6.4 19.3 0.00 0.00 0.00 33 1020.7
20260506233121 15 349 8.0 20.9 0.00 0.00 0.00 32 1020.8
20260506232443 15 317 9.7 22.5 0.00 0.00 0.00 35 1020.5
20260506231802 15 324 11.3 27.4 0.00 0.00 0.00 32 1020.6
20260506231136 15 345 6.4 30.6 0.00 0.00 0.00 34 1020.6
20260506230511 15 341 12.9 30.6 0.00 0.00 0.00 32 1020.6
20260506225802 16 357 4.8 24.1 0.00 0.00 0.00 32 1020.5
20260506225136 15 358 8.0 17.7 0.00 0.00 0.00 33 1020.6
20260506224456 15 36 6.4 16.1 0.00 0.00 0.00 35 1020.6
20260506223801 14 318 6.4 24.1 0.00 0.00 0.00 36 1020.6
20260506223137 15 355 8.0 24.1 0.00 0.00 0.00 34 1020.6
20260506222441 15 345 11.3 38.6 0.00 0.00 0.00 35 1020.7
20260506221801 14 334 14.5 38.6 0.00 0.00 0.00 36 1020.5
20260506221121 14 359 8.0 38.6 0.00 0.00 0.00 36 1020.5
20260506220441 14 343 12.9 38.6 0.00 0.00 0.00 36 1020.7
20260506215801 14 340 9.7 33.8 0.00 0.00 0.00 37 1020.8
20260506215121 13 314 16.1 33.8 0.00 0.00 0.00 37 1020.9
20260506214456 14 333 9.7 29.0 0.00 0.00 0.00 38 1021.0
20260506213802 14 331 9.7 27.4 0.00 0.00 0.00 38 1021.0
20260506213136 13 307 6.4 35.4 0.00 0.00 0.00 40 1020.9
20260506212441 13 314 16.1 35.4 0.00 0.00 0.00 39 1021.1
20260506211801 13 313 8.0 32.2 0.00 0.00 0.00 41 1021.0
20260506211121 13 302 14.5 32.2 0.00 0.00 0.00 39 1021.1
20260506210442 13 313 14.5 24.1 0.00 0.00 0.00 40 1021.1
20260506205802 13 308 11.3 20.9 0.00 0.00 0.00 40 1021.3
20260506205121 15 349 6.4 20.9 0.00 0.00 0.00 42 1021.3
20260506204441 13 342 6.4 27.4 0.00 0.00 0.00 43 1021.0
20260506203817 12 294 14.5 30.6 0.00 0.00 0.00 40 1021.1
20260506203136 13 335 12.9 24.1 0.00 0.00 0.00 41 1021.0
20260506202456 12 320 12.9 27.4 0.00 0.00 0.00 41 1021.1
20260506201801 12 328 12.9 24.1 0.00 0.00 0.00 42 1021.1
20260506201151 12 315 12.9 25.7 0.00 0.00 0.00 42 1021.0
20260506200456 13 13 6.4 17.7 0.00 0.00 0.00 42 1021.0
20260506195801 13 329 4.8 25.7 0.00 0.00 0.00 47 1021.0
20260506195138 11 283 11.3 25.7 0.00 0.00 0.00 44 1021.0
20260506194441 12 284 11.3 29.0 0.00 0.00 0.00 43 1021.0
20260506193801 12 321 9.7 24.1 0.00 0.00 0.00 44 1021.0
20260506193123 12 278 9.7 24.1 0.00 0.00 0.00 46 1021.0
20260506192441 11 324 6.4 22.5 0.00 0.00 0.00 44 1021.0
20260506191816 11 304 11.3 27.4 0.00 0.00 0.00 45 1021.0
20260506191136 11 290 11.3 20.9 0.00 0.00 0.00 47 1020.8
20260506190442 11 349 6.4 22.5 0.00 0.00 0.00 48 1021.0
20260506185801 11 326 9.7 29.0 0.00 0.00 0.00 45 1021.0
20260506185121 11 316 14.5 25.7 0.00 0.00 0.00 47 1021.1
20260506184441 10 299 6.4 24.1 0.00 0.00 0.00 46 1021.1
20260506183801 11 313 9.7 24.1 0.00 0.00 0.00 47 1021.0
20260506183121 11 319 9.7 24.1 0.00 0.00 0.00 47 1021.2
20260506182441 11 304 6.4 24.1 0.00 0.00 0.00 45 1021.1
20260506181816 11 317 11.3 24.1 0.00 0.00 0.00 45 1021.3
20260506181121 9 295 11.3 24.1 0.00 0.00 0.00 47 1021.1
20260506180457 10 330 11.3 20.9 0.00 0.00 0.00 47 1021.2
20260506175801 10 322 11.3 24.1 0.00 0.00 0.00 48 1020.9
20260506175136 9 312 8.0 27.4 0.00 0.00 0.00 50 1021.0
20260506174457 10 343 8.0 27.4 0.00 0.00 0.00 48 1021.2
20260506173801 10 321 9.7 20.9 0.00 0.00 0.00 47 1021.0
20260506173121 9 334 6.4 20.9 0.00 0.00 0.00 49 1020.9
20260506172441 9 321 8.0 20.9 0.00 0.00 0.00 49 1020.9
20260506171801 9 349 8.0 17.7 0.00 0.00 0.00 49 1020.7
20260506171122 9 344 4.8 20.9 0.00 0.00 0.00 52 1020.8
20260506170457 8 294 9.7 24.1 0.00 0.00 0.00 52 1020.7
20260506165802 8 346 8.0 29.0 0.00 0.00 0.00 52 1020.6
20260506165136 8 313 16.1 29.0 0.00 0.00 0.00 52 1020.6
20260506164441 8 326 9.7 24.1 0.00 0.00 0.00 52 1020.5
20260506163817 9 326 8.0 19.3 0.00 0.00 0.00 52 1020.5
20260506163122 8 324 11.3 20.9 0.00 0.00 0.00 52 1020.6
20260506162457 8 322 6.4 19.3 0.00 0.00 0.00 53 1020.4
20260506161802 8 351 8.0 22.5 0.00 0.00 0.00 54 1020.3
20260506161121 7 335 11.3 22.5 0.00 0.00 0.00 53 1020.3
20260506160441 7 333 8.0 20.9 0.00 0.00 0.00 53 1020.3
20260506155801 7 346 11.3 27.4 0.00 0.00 0.00 52 1020.2
20260506155122 7 345 6.4 20.9 0.00 0.00 0.00 55 1020.2
20260506154511 7 337 9.7 20.9 0.00 0.00 0.00 54 1020.2
20260506153801 7 340 9.7 24.1 0.00 0.00 0.00 54 1020.1
20260506153121 7 344 6.4 20.9 0.00 0.00 0.00 55 1020.1
20260506152456 7 339 9.7 20.9 0.00 0.00 0.00 54 1020.0
20260506151816 6 350 9.7 20.9 0.00 0.00 0.00 55 1020.0
20260506151136 6 344 6.4 22.5 0.00 0.00 0.00 57 1019.9
20260506150442 6 336 8.0 19.3 0.00 0.00 0.00 56 1019.8
20260506145801 6 346 9.7 20.9 0.00 0.00 0.00 55 1019.7
20260506145137 6 341 9.7 22.5 0.00 0.00 0.00 56 1019.8
20260506144441 5 341 11.3 22.5 0.00 0.00 0.00 57 1019.6
20260506143801 5 356 6.4 19.3 0.00 0.00 0.00 60 1019.6
20260506143121 5 358 6.4 16.1 0.00 0.00 0.00 61 1019.6
20260506142442 4 358 6.4 16.1 0.00 0.00 0.00 62 1019.4
20260506141801 4 2 6.4 16.1 0.00 0.00 0.00 62 1019.3
20260506141151 3 16 6.4 14.5 0.00 0.00 0.00 63 1019.4
20260506140511 3 11 4.8 12.9 0.00 0.00 0.00 63 1019.3
20260506135816 3 17 4.8 19.3 0.00 0.00 0.00 64 1019.3
20260506135121 3 13 4.8 12.9 0.00 0.00 0.00 65 1019.3
20260506134456 3 30 4.8 14.5 0.00 0.00 0.00 65 1019.3
20260506133801 3 27 4.8 16.1 0.00 0.00 0.00 65 1019.2
20260506133151 3 32 4.8 16.1 0.00 0.00 0.00 66 1019.1
20260506132511 3 17 4.8 17.7 0.00 0.00 0.00 67 1018.9
20260506131801 3 19 6.4 14.5 0.00 0.00 0.00 67 1019.0
20260506131121 2 30 4.8 14.5 0.00 0.00 0.00 68 1018.8
20260506130442 2 35 4.8 14.5 0.00 0.00 0.00 68 1018.8
20260506125831 2 33 4.8 16.1 0.00 0.00 0.00 69 1018.7
20260506125121 2 26 4.8 12.9 0.00 0.00 0.00 69 1018.6
20260506124441 2 35 4.8 11.3 0.00 0.00 0.00 69 1018.5
20260506123801 2 34 4.8 9.7 0.00 0.00 0.00 69 1018.5
20260506123136 2 32 3.2 9.7 0.00 0.00 0.00 69 1018.5
20260506122441 2 46 3.2 9.7 0.00 0.00 0.00 69 1018.4
20260506121831 2 31 4.8 9.7 0.00 0.00 0.00 69 1018.1
20260506121137 2 13 4.8 9.7 0.00 0.00 0.00 69 1018.4
20260506120511 2 30 3.2 14.5 0.00 0.00 0.00 70 1018.3
20260506115802 2 7 4.8 14.5 0.00 0.00 0.00 69 1018.1
20260506115121 2 9 6.4 11.3 0.00 0.00 0.00 69 1018.1
20260506114441 2 358 4.8 12.9 0.00 0.00 0.00 69 1018.1
20260506113817 2 4 4.8 11.3 0.00 0.00 0.00 69 1018.2
20260506113122 2 1 6.4 12.9 0.00 0.00 0.00 69 1018.2
20260506112441 2 355 6.4 14.5 0.00 0.00 0.00 68 1018.1
20260506111801 2 351 8.0 14.5 0.00 0.00 0.00 68 1018.0
20260506111121 2 353 6.4 14.5 0.00 0.00 0.00 68 1017.9
20260506110441 2 358 6.4 17.7 0.00 0.00 0.00 68 1017.9
20260506105802 2 359 6.4 16.1 0.00 0.00 0.00 67 1017.9
20260506105121 2 6 8.0 16.1 0.00 0.00 0.00 67 1017.9
20260506104442 2 346 8.0 16.1 0.00 0.00 0.00 67 1017.9
20260506103802 2 359 6.4 17.7 0.00 0.00 0.00 67 1017.8
20260506103122 2 355 6.4 17.7 0.00 0.00 0.00 67 1017.8
20260506102456 2 2 6.4 17.7 0.00 0.00 0.00 67 1017.8
20260506101801 2 7 8.0 17.7 0.00 0.00 0.00 67 1017.9
20260506101136 2 350 8.0 20.9 0.00 0.00 0.00 67 1017.9
20260506100441 2 8 8.0 20.9 0.00 0.00 0.00 68 1017.7
20260506095801 2 15 6.4 16.1 0.00 0.00 0.00 68 1017.7
20260506095136 2 15 6.4 17.7 0.00 0.00 0.00 68 1017.7
20260506094442 2 360 8.0 19.3 0.00 0.00 0.00 67 1017.6
20260506093816 2 1 6.4 19.3 0.00 0.00 0.00 69 1017.5
20260506093122 2 1 8.0 19.3 0.00 0.00 0.00 69 1017.5
20260506092441 3 346 9.7 20.9 0.00 0.00 0.00 69 1017.4
20260506091816 3 344 9.7 20.9 0.00 0.00 0.00 69 1017.6
20260506091137 3 348 9.7 19.3 0.00 0.00 0.00 69 1017.5
20260506090456 3 340 11.3 17.7 0.00 0.00 0.00 70 1017.6